Theta_e
345 345 344 345 347 348 349 350 351 351 351 351 351 350 350 350 349 350 349 349 348 348 348 346 347 346 347 344 344 344 344 343 342 342 342 342 341 339 338 340 342 340 342 341 344 345 346 346 346 346 346 346 347 342 340 341 343 337 335 327 338 334
347 346 345 344 345 347 348 349 349 349 350 351 351 350 350 349 351 349 350 348 349 349 349 348 349 350 347 344 344 344 344 343 343 344 344 343 344 342 341 340 340 342 342 343 342 345 346 347 346 346 346 345 344 341 341 343 341 333 335 334 335 339
346 346 345 344 343 345 347 347 348 349 350 351 351 351 349 349 348 348 348 348 351 350 350 349 349 346 348 349 345 345 345 344 345 345 345 344 345 343 342 341 339 341 342 342 340 341 346 343 344 347 347 344 341 341 342 344 339 337 335 338 334 342
346 346 344 341 341 344 346 345 347 347 349 349 349 349 349 346 347 347 348 351 353 355 347 348 343 350 350 346 345 346 346 345 346 346 346 344 345 345 344 343 340 341 340 337 336 340 343 342 342 344 342 341 341 344 344 341 335 333 336 335 335 344
345 346 344 341 342 342 345 342 343 344 346 346 347 347 347 348 350 352 347 353 349 348 349 349 348 348 349 347 346 345 346 344 344 343 345 342 342 341 341 336 332 337 333 335 335 337 341 345 344 342 340 341 342 342 341 343 341 335 333 342 336 346
346 345 343 341 341 341 343 340 342 345 345 343 344 345 345 346 349 352 350 349 350 348 348 348 347 347 346 347 346 345 346 349 346 346 349 342 343 345 338 336 328 328 330 332 334 336 338 342 342 342 341 341 340 340 340 338 335 342 337 340 338 345
345 345 344 342 342 340 342 346 346 343 343 342 346 344 344 345 346 349 348 349 350 349 346 347 347 345 344 345 345 345 347 349 348 347 344 342 343 344 341 340 331 330 328 330 333 335 338 338 337 335 337 335 338 337 339 338 337 335 335 342 339 348
342 342 344 343 341 339 345 344 346 346 346 347 347 347 347 347 348 347 348 351 351 349 347 348 347 346 345 346 344 346 347 347 346 344 343 344 343 342 340 339 341 338 335 334 330 332 334 338 339 336 334 334 334 334 336 336 338 336 336 336 341 345
342 343 345 342 339 341 343 344 346 345 347 346 347 350 348 348 347 347 348 350 350 348 347 346 349 346 346 345 347 347 346 345 347 346 346 346 346 345 344 341 343 339 337 338 336 336 336 337 339 339 339 338 336 336 336 335 337 339 335 336 341 342
342 343 344 344 347 343 345 344 344 350 345 348 352 349 348 347 348 346 346 347 350 350 348 348 348 348 346 344 346 347 345 342 346 348 346 344 348 346 346 345 346 340 338 339 344 341 339 336 335 336 338 338 340 340 338 338 340 339 340 338 336 349
341 345 341 340 344 345 345 344 343 346 346 347 349 348 347 351 348 348 347 348 349 352 349 350 348 348 344 343 344 342 342 342 344 345 347 347 348 347 350 347 347 345 343 341 341 340 340 337 337 334 339 335 336 334 334 336 341 337 337 340 337 342
345 346 345 343 345 344 346 345 347 348 347 347 353 350 348 350 348 349 349 348 351 352 350 351 352 346 346 342 342 340 342 343 344 347 345 344 347 345 345 347 345 348 350 347 344 344 343 340 336 335 335 337 337 337 336 336 338 341 337 339 341 343
347 347 350 345 344 344 348 346 349 348 349 350 350 350 347 345 348 350 349 346 351 350 349 351 348 348 346 346 344 342 341 339 344 341 341 344 344 345 345 345 348 345 348 345 342 342 342 342 340 340 339 337 338 337 338 338 339 341 339 341 344 342
343 343 340 342 342 340 341 346 347 351 348 348 351 349 350 350 350 349 351 352 350 351 351 352 352 351 350 351 349 347 343 346 344 344 346 348 347 342 345 345 342 344 345 343 341 342 342 340 341 340 340 341 340 340 341 339 340 340 342 343 345 342
333 335 339 338 339 342 340 339 344 348 349 350 348 349 350 349 349 349 349 350 351 351 350 350 351 351 347 349 347 348 346 347 345 343 343 349 348 347 345 342 344 341 340 340 340 339 339 339 339 338 339 339 339 341 342 341 340 340 340 341 345 344
333 334 335 337 337 339 340 340 340 340 345 345 351 347 347 347 348 349 349 348 349 349 351 350 349 349 347 345 345 343 345 346 346 346 346 345 346 341 341 342 345 343 339 339 338 337 339 338 339 338 339 340 340 340 339 338 339 340 340 342 340 342
335 332 336 338 340 339 340 340 337 340 340 340 343 345 347 347 346 347 349 347 349 350 348 348 347 347 347 344 344 344 347 348 348 347 347 346 345 343 342 341 341 342 341 338 337 336 337 338 338 338 338 338 339 339 338 339 339 339 342 340 339 340
335 334 340 340 337 339 340 341 341 340 337 339 339 342 343 347 347 347 347 346 347 348 348 346 347 346 348 347 346 346 344 347 346 348 346 345 344 344 343 342 338 341 340 338 336 335 334 335 336 336 335 336 337 338 337 337 338 339 339 338 339 339
336 338 339 340 339 341 337 337 334 334 338 340 339 341 342 344 345 346 345 344 344 345 344 343 345 346 346 343 343 342 342 343 343 344 343 339 338 339 338 338 337 335 338 337 335 335 334 334 334 334 334 335 336 337 337 337 338 338 338 340 339 340
338 338 339 340 337 338 337 335 335 336 336 337 337 340 344 343 343 341 342 343 342 342 341 342 341 342 342 342 341 340 340 340 340 339 338 336 336 335 335 335 335 335 334 334 335 335 334 333 332 332 332 335 336 336 336 336 337 337 339 339 339 340
337 338 338 336 335 336 334 333 333 333 335 334 337 338 340 341 340 340 341 340 340 340 340 340 339 339 337 338 339 339 338 337 336 336 336 335 335 334 334 335 333 334 332 331 331 333 333 332 330 328 330 330 332 334 335 335 336 339 340 341 340 338
337 337 338 338 337 337 336 334 332 330 332 334 336 337 337 339 339 340 340 339 339 338 337 336 336 335 335 334 335 335 335 333 332 332 333 333 332 332 331 331 331 328 329 328 328 331 330 330 327 325 324 325 327 331 332 336 338 338 338 337 337 338
337 336 336 338 337 334 336 336 335 334 332 334 338 339 338 339 339 337 337 337 336 335 334 333 333 333 332 332 332 332 332 331 330 330 329 329 328 327 328 329 329 326 324 326 325 328 327 329 324 325 326 324 321 321 327 334 331 331 331 334 336 336
335 336 336 335 336 337 337 337 337 337 336 335 337 340 339 338 336 335 333 334 333 333 332 330 329 329 330 330 330 330 330 329 329 328 327 326 325 324 326 326 326 325 324 320 321 323 327 329 327 323 318 319 320 321 317 320 321 324 329 330 329 330
336 337 337 336 336 336 337 336 337 336 337 337 339 337 335 332 332 331 331 330 329 330 328 327 327 327 328 328 328 328 328 328 328 327 327 326 324 324 325 324 324 324 323 321 320 321 324 326 324 328 323 319 316 315 315 317 318 320 328 324 326 327
335 337 336 336 337 337 335 332 332 330 329 330 331 332 331 329 328 328 327 327 326 326 326 326 325 325 325 326 326 325 326 325 326 326 327 325 323 323 323 323 322 323 322 323 321 319 318 322 322 324 322 321 321 318 315 317 316 312 320 323 324 325
335 336 338 336 336 335 334 333 332 331 331 329 329 330 331 331 330 329 329 327 325 325 324 324 324 323 323 324 324 323 324 324 324 324 324 321 321 321 321 322 321 322 320 321 320 316 316 316 318 319 318 319 319 320 320 316 312 314 311 316 320 320
335 336 337 337 337 336 332 332 330 334 332 330 329 328 329 328 328 328 327 325 323 322 322 322 322 320 321 321 322 321 321 321 321 321 321 319 320 321 321 321 321 321 319 320 317 315 314 313 311 312 315 314 315 317 316 317 317 313 310 308 310 316
334 334 333 335 335 334 335 334 333 332 329 329 329 328 328 327 326 327 325 325 323 321 321 321 320 320 320 319 321 320 319 319 319 319 319 318 319 320 320 318 318 318 317 317 316 317 314 312 312 311 311 311 313 312 313 313 314 312 308 306 307 308
333 334 335 334 334 334 334 333 332 331 328 327 328 328 328 326 326 325 322 322 322 321 319 320 320 319 319 318 318 318 318 317 317 318 319 317 317 318 318 317 318 318 316 315 315 316 313 312 312 312 312 311 310 310 310 309 309 308 308 308 304 305
330 331 331 330 331 330 331 331 330 330 329 327 327 327 325 324 324 324 321 320 319 319 319 319 319 318 318 317 317 317 317 316 316 318 317 316 316 317 317 315 316 317 316 315 314 315 313 313 312 311 311 310 310 309 308 306 306 307 307 305 304 304
326 328 328 328 329 328 328 328 329 328 328 328 327 325 325 323 322 319 320 318 319 319 318 318 318 316 316 316 316 316 316 315 315 315 315 315 315 316 315 314 315 314 314 315 315 315 312 311 311 310 310 311 311 312 311 309 309 309 307 306 305 304
325 326 327 327 327 328 327 326 326 326 326 327 326 324 323 321 321 321 319 317 317 316 316 315 315 314 314 315 315 314 314 313 313 314 314 314 314 314 314 312 312 312 313 313 312 313 312 311 311 310 309 311 311 311 309 309 309 309 309 308 306 303
323 326 325 324 325 325 325 325 325 324 326 325 323 323 321 319 320 319 318 317 316 315 314 314 313 313 314 314 313 313 313 313 313 313 313 313 313 313 313 309 311 311 312 313 312 312 311 311 311 311 311 309 310 310 308 308 308 308 307 306 303 303
321 323 323 322 322 322 322 323 323 324 323 322 321 320 319 320 319 317 318 317 316 315 313 312 312 313 314 314 314 313 312 312 312 313 312 312 313 312 313 311 310 312 312 312 311 311 310 310 310 310 310 310 310 309 307 308 308 307 307 306 305 304
321 321 321 321 320 320 320 321 321 321 321 320 319 318 318 318 318 318 317 316 315 314 313 313 313 312 313 313 313 311 311 311 312 312 312 311 311 311 311 311 310 310 310 312 310 309 309 309 309 310 309 310 308 307 306 308 308 307 307 307 306 304
319 320 319 319 318 318 319 318 319 319 319 319 318 316 316 316 317 316 316 315 314 313 314 314 312 313 312 312 312 312 311 311 311 311 311 311 310 310 310 310 310 309 309 311 311 309 309 308 308 309 309 308 306 306 305 307 307 307 307 307 305 304
Wind_Speed
10 10 10 9 7 8 10 12 11 13 13 12 11 11 10 9 8 7 7 7 8 5 5 5 6 6 8 6 9 8 5 4 4 3 3 3 3 3 4 4 4 5 4 4 3 4 6 6 7 8 9 9 10 6 6 7 8 5 1 6 7 6
8 10 9 7 7 7 8 10 9 9 9 9 9 10 8 6 7 5 6 6 5 5 5 5 4 8 5 7 6 8 6 5 4 5 5 4 5 5 4 5 6 7 6 5 5 3 4 7 8 9 9 9 6 5 7 7 6 3 6 5 6 8
10 10 9 8 6 7 8 6 9 8 7 9 9 9 6 6 5 6 6 6 6 1 1 2 3 5 5 6 7 8 7 6 7 7 6 6 5 6 6 6 7 7 7 7 4 5 4 5 5 10 9 6 5 6 7 8 2 5 6 6 4 11
11 10 8 7 7 6 6 7 7 7 6 5 6 6 6 6 6 5 3 2 2 1 4 3 4 9 8 5 5 7 7 7 7 7 7 6 6 6 8 8 7 8 6 4 4 6 6 5 5 4 4 5 5 7 8 2 3 5 7 4 6 13
10 9 8 8 7 7 6 6 6 7 7 6 6 5 4 3 3 2 4 2 4 4 4 3 3 4 3 2 1 3 4 4 3 5 8 5 4 5 5 5 4 5 4 5 6 7 6 2 3 6 6 6 6 7 5 2 3 5 3 3 7 12
8 8 8 7 7 6 7 5 4 4 4 5 7 6 5 4 2 2 5 5 3 2 2 1 2 3 2 2 2 2 1 1 2 3 0 4 5 5 5 5 5 6 6 6 7 7 7 3 5 5 5 5 6 4 4 3 5 2 5 5 7 12
5 4 5 6 5 6 5 4 4 5 5 4 3 4 4 4 3 6 4 2 2 2 2 1 2 4 1 2 1 2 2 1 1 2 1 3 4 2 3 4 7 6 7 8 8 3 2 3 3 4 3 3 2 4 3 2 2 4 3 2 6 10
6 6 4 5 6 5 4 5 4 4 3 3 3 2 3 5 5 4 3 2 2 2 2 1 1 3 4 3 3 2 1 2 1 1 2 2 4 5 7 7 4 4 3 3 4 4 4 3 2 6 4 4 4 4 5 5 3 4 5 6 5 9
6 5 3 5 6 4 5 5 3 3 3 4 3 2 4 5 4 2 2 1 2 3 1 1 1 0 0 0 1 1 2 2 0 1 2 1 1 4 3 3 3 5 5 3 6 4 5 4 2 3 2 3 4 4 4 4 4 2 3 3 2 6
6 5 4 4 2 4 3 3 3 2 5 3 3 4 5 4 3 3 3 2 2 3 3 2 1 0 1 1 1 1 1 2 2 2 2 2 3 3 3 4 2 4 5 3 2 4 3 3 3 4 3 2 2 1 3 3 3 2 2 4 9 1
5 5 5 5 3 4 4 4 4 3 3 3 3 5 5 3 3 2 2 1 1 1 3 1 2 3 6 2 3 0 2 2 2 3 2 3 4 4 1 2 3 3 3 3 3 3 2 4 4 3 5 6 6 5 5 6 5 3 4 1 5 1
4 4 5 4 3 5 2 4 3 3 4 4 3 4 4 3 3 2 3 2 1 2 3 1 1 2 2 6 4 2 3 3 0 1 1 3 2 4 4 4 5 4 2 3 5 4 3 4 4 5 5 3 3 3 3 3 1 0 2 1 5 3
3 2 2 3 5 5 1 1 1 2 3 4 3 3 4 3 2 3 4 5 1 2 2 2 0 2 1 7 6 8 5 1 3 2 3 4 1 5 4 4 5 3 3 3 4 4 4 4 4 4 3 4 4 4 3 3 4 2 1 2 0 1
6 7 13 10 8 7 8 4 5 3 3 3 2 2 3 3 3 2 2 2 2 2 1 1 1 1 1 2 0 1 4 3 6 6 2 4 3 6 4 3 4 4 3 3 4 4 4 4 4 4 4 3 3 4 3 3 3 3 3 2 3 2
7 8 8 10 8 6 8 8 8 7 4 1 3 2 3 3 3 3 2 3 2 1 2 1 1 1 3 1 2 2 2 1 3 5 5 3 1 0 2 2 2 4 5 5 4 4 4 3 4 5 4 4 4 4 2 3 3 3 3 2 1 5
4 4 4 1 4 5 5 6 7 9 8 7 1 3 3 2 2 2 3 2 2 2 1 2 2 3 2 3 2 4 2 3 4 3 2 1 2 2 3 4 2 2 4 4 5 4 4 4 3 5 5 4 4 3 4 4 5 4 3 2 1 3
6 4 6 6 8 6 5 6 6 5 9 8 7 3 3 3 4 3 2 3 2 2 2 3 3 4 3 3 3 2 1 2 2 2 1 0 2 1 1 2 2 2 3 4 5 6 5 4 3 4 4 4 4 4 4 4 4 4 3 4 4 3
6 4 4 6 6 2 2 3 4 2 5 8 11 7 4 3 3 3 4 3 3 3 4 4 4 3 1 1 1 2 2 2 2 1 2 1 1 0 1 2 3 3 2 3 4 4 4 4 4 4 4 4 5 4 5 5 5 4 3 2 4 3
6 5 5 5 5 3 5 5 7 5 4 3 5 8 1 3 4 4 3 4 4 4 5 6 5 4 2 4 3 4 3 3 3 2 2 4 4 4 5 5 5 6 4 4 4 4 5 5 6 5 6 7 6 6 6 6 5 4 3 3 4 5
5 5 5 6 5 3 4 4 5 6 6 5 6 5 3 3 3 4 6 6 6 6 7 6 7 7 7 6 5 6 6 7 5 5 6 6 6 6 8 8 8 7 7 6 5 5 5 6 6 6 7 6 5 6 6 6 5 4 3 2 3 3
6 6 5 5 3 3 4 3 4 6 2 4 4 3 5 5 6 5 7 7 7 7 7 7 8 8 8 8 7 6 7 7 7 6 5 6 7 8 8 7 8 7 9 9 6 6 7 9 8 7 7 7 7 7 8 7 4 2 1 3 3 4
5 6 5 5 4 5 4 4 4 4 2 5 5 1 4 4 5 6 7 8 7 8 8 8 8 9 9 8 7 6 7 8 8 7 7 8 8 7 8 8 8 7 7 7 7 8 9 9 7 8 10 10 6 4 6 2 3 3 2 3 4 4
5 6 6 6 6 4 3 4 4 4 3 3 2 3 3 4 6 7 7 7 8 7 8 8 8 8 8 8 7 7 7 7 8 7 6 7 7 8 8 7 8 7 8 7 6 7 9 7 7 8 7 6 7 9 6 3 8 7 9 8 4 4
7 7 8 7 6 5 6 6 6 5 4 5 2 2 3 5 6 7 7 7 6 6 7 7 8 8 6 7 7 6 6 6 6 7 6 6 7 7 7 7 7 7 6 6 7 8 6 7 7 8 8 5 7 6 6 6 12 11 8 6 10 9
7 7 7 7 6 4 5 7 6 4 3 2 0 1 2 4 5 6 5 6 7 8 9 8 7 8 7 6 6 6 6 6 6 5 4 5 5 5 5 5 7 5 6 6 6 6 6 8 9 6 6 6 4 5 5 8 11 9 4 10 8 9
7 6 7 7 6 4 5 5 5 6 2 2 1 3 4 5 5 5 6 8 9 8 8 8 8 8 7 6 7 7 7 6 5 5 5 6 7 7 7 7 7 6 6 7 6 5 6 5 8 7 10 7 5 5 8 9 7 9 8 3 7 6
7 6 5 6 5 5 6 4 4 3 3 3 4 4 4 4 4 4 6 7 7 7 8 8 7 7 7 7 7 6 6 5 5 5 6 6 6 6 5 6 6 6 7 7 7 7 8 8 7 7 9 8 9 7 8 8 7 9 11 8 3 7
7 6 4 5 5 6 6 4 3 4 3 4 5 5 5 6 5 5 5 5 6 6 7 7 6 7 6 6 5 5 5 5 5 6 6 6 5 5 5 5 5 7 6 6 6 6 7 8 8 7 8 8 8 7 9 9 8 9 8 11 14 8
8 6 5 5 5 3 4 4 4 4 5 4 4 5 5 5 5 4 4 5 5 5 4 5 6 5 5 6 5 5 6 6 5 5 5 5 5 5 5 6 6 7 7 6 6 5 6 6 7 7 8 7 7 8 8 8 9 10 9 11 9 11
8 5 4 7 7 7 7 6 5 5 5 5 4 4 4 4 4 4 5 4 4 5 5 5 5 6 5 6 6 5 5 6 5 5 5 5 5 5 5 6 7 6 7 6 5 6 6 5 5 5 6 6 7 7 6 6 8 9 8 7 9 13
9 7 8 8 8 8 6 5 5 5 5 5 5 4 4 4 4 4 5 4 5 5 4 5 5 4 5 5 5 6 5 5 5 5 5 5 5 5 4 6 5 6 6 6 6 6 6 5 6 5 5 5 6 6 6 7 7 7 7 9 10 10
10 9 9 8 7 5 5 5 4 5 4 4 4 4 4 4 4 6 5 5 5 4 4 4 4 4 5 5 5 5 5 5 5 5 5 5 5 5 4 6 5 5 5 5 5 5 5 5 6 5 5 5 4 4 3 4 5 5 5 6 7 10
9 8 8 8 5 5 5 5 4 4 3 3 3 3 3 4 4 4 5 6 4 4 4 4 4 4 4 5 5 5 5 5 5 5 5 5 5 6 5 6 6 6 5 5 6 5 5 5 6 5 6 5 6 5 8 8 7 6 5 6 7 9
11 7 7 8 6 5 5 4 4 4 2 3 5 5 5 5 5 5 6 5 4 4 4 4 4 4 4 4 5 5 5 5 5 5 5 5 5 5 5 6 6 5 5 4 5 5 5 5 5 5 6 6 7 6 7 7 7 7 8 8 8 9
10 8 8 8 6 5 5 4 3 3 4 4 5 5 5 5 4 5 4 5 5 5 4 4 5 4 4 4 4 4 5 5 5 5 5 5 5 5 5 6 5 5 4 4 5 6 5 6 7 7 6 6 7 7 7 6 5 6 6 6 7 8
9 8 7 8 7 5 4 4 5 4 5 5 6 6 5 4 4 4 5 5 5 4 4 4 4 4 4 4 4 4 5 6 5 5 5 5 5 5 5 5 5 5 5 4 5 6 5 5 6 6 5 6 6 6 7 6 5 5 5 6 6 7
10 8 9 8 6 5 5 6 5 5 4 5 6 6 5 6 6 5 5 4 4 5 4 3 4 3 4 4 4 4 4 4 5 5 5 5 6 5 5 5 4 5 5 4 4 5 5 5 6 5 5 8 7 6 7 6 6 7 6 7 8 8
Wind_Direction
145 142 139 138 133 130 133 138 141 141 145 150 150 147 148 149 144 138 139 148 157 164 159 147 168 141 147 133 117 119 131 145 157 163 189 220 226 222 211 242 268 272 284 281 278 260 239 235 250 264 272 284 295 296 282 281 279 303 246 134 118 121
140 133 136 139 139 138 145 152 148 149 157 162 153 151 154 158 155 148 170 176 190 202 164 174 180 138 139 131 136 143 158 173 177 198 211 213 229 234 222 225 248 265 274 277 268 257 214 228 236 253 265 274 286 270 270 280 286 320 306 82 108 138
137 136 143 139 139 143 170 156 155 161 162 165 164 159 175 166 164 163 189 190 210 257 97 93 101 150 130 137 146 168 180 189 198 211 210 221 228 233 243 229 239 256 270 277 271 248 213 191 205 230 249 262 251 257 257 248 320 313 291 107 116 150
141 144 144 140 141 157 177 149 162 163 156 170 166 181 184 168 186 183 151 91 38 92 84 73 87 111 131 140 154 175 191 207 217 228 223 223 229 237 238 246 245 253 266 258 238 245 228 189 177 185 206 233 243 253 253 216 229 245 259 139 133 157
152 165 145 149 161 158 173 167 174 151 167 165 173 183 169 181 167 132 132 104 72 39 38 41 35 18 14 19 134 178 183 210 219 232 215 232 215 213 203 210 225 228 241 244 237 235 258 200 200 173 204 217 237 250 261 280 258 251 288 53 139 163
165 169 152 149 166 151 162 180 142 141 171 175 160 175 163 169 130 151 70 74 72 89 58 53 57 51 5 350 0 353 285 274 293 302 159 223 236 212 196 203 197 203 217 237 249 242 232 188 186 205 223 217 230 255 254 237 269 250 221 125 159 171
149 154 158 156 136 152 184 122 143 162 167 195 144 144 152 133 132 78 81 94 132 101 116 169 143 114 172 225 252 268 277 227 231 280 5 328 317 313 248 206 198 199 208 221 240 263 232 200 248 264 247 258 253 244 247 275 288 305 309 162 150 176
149 159 171 118 135 179 123 127 198 170 138 129 128 166 119 104 92 100 104 164 128 139 146 140 194 159 159 186 201 209 247 286 96 277 308 343 329 328 321 330 324 291 268 241 240 235 249 287 232 204 250 294 309 318 337 321 328 315 318 315 155 185
144 156 118 135 183 152 135 158 161 154 133 140 131 77 85 86 89 101 149 127 134 136 119 346 169 208 178 54 21 282 343 331 37 310 319 322 311 291 285 332 342 307 299 339 350 345 333 296 233 271 239 251 258 263 275 287 279 300 292 323 5 177
157 133 126 203 147 108 130 128 145 173 106 138 82 103 94 111 131 148 132 204 170 150 164 178 123 243 78 253 136 277 189 292 351 329 338 327 302 275 339 327 311 315 321 313 297 298 303 291 332 335 306 279 288 301 291 277 276 293 347 315 24 318
150 140 164 197 128 126 136 145 155 140 111 104 138 127 111 100 104 75 109 293 294 151 129 235 177 156 128 287 297 308 255 283 348 333 8 323 304 312 200 241 282 274 288 303 287 287 322 324 319 283 245 258 271 278 279 272 259 271 277 45 127 302
135 157 184 140 110 123 118 132 139 111 126 134 102 74 121 120 132 147 147 174 173 327 91 150 253 113 195 129 228 183 296 255 57 232 227 254 311 296 303 287 274 249 262 324 320 318 313 298 288 298 304 299 268 251 244 267 210 139 288 264 133 174
126 177 159 100 80 26 63 122 75 131 110 106 102 140 122 122 152 166 138 164 218 129 110 142 189 270 142 172 170 133 207 163 190 52 318 262 276 314 285 282 251 265 300 281 281 280 283 277 281 283 315 311 317 306 304 324 315 294 278 262 163 124
33 23 19 8 16 11 323 355 343 10 87 102 130 106 112 116 126 114 91 96 123 109 136 86 105 341 19 26 40 126 104 204 132 153 219 259 134 242 283 270 328 286 261 256 264 263 250 266 270 273 262 271 253 264 278 291 286 267 239 243 115 135
32 29 24 4 9 16 346 339 336 329 19 39 134 105 137 137 151 126 117 100 82 57 67 94 68 43 3 320 48 48 77 138 63 122 202 232 262 271 223 303 13 348 346 324 308 311 316 321 318 303 307 302 303 310 301 290 294 288 285 283 98 168
125 98 124 159 25 39 38 15 335 347 338 332 319 162 73 102 92 91 100 100 86 70 90 49 62 85 11 9 30 57 4 24 21 30 27 355 9 6 360 350 337 357 329 309 313 312 313 308 311 312 306 300 298 298 303 295 290 295 290 292 227 222
80 60 20 40 46 19 29 35 36 352 311 329 313 332 183 96 86 110 128 88 67 57 58 63 43 52 50 28 23 83 83 347 106 54 316 317 59 10 2 337 317 325 298 308 316 320 321 313 299 295 297 287 284 278 265 265 266 266 280 262 253 244
100 90 61 63 69 25 38 50 87 43 343 330 330 331 333 85 61 51 58 67 65 54 43 51 51 50 35 47 43 52 52 26 70 85 2 15 161 111 312 343 334 328 332 309 304 311 309 310 308 300 297 294 286 279 271 263 255 251 244 259 279 263
108 105 79 84 70 89 74 60 68 32 352 304 300 287 163 59 72 60 68 78 73 60 54 55 51 28 36 26 31 34 37 26 38 46 20 12 19 20 10 3 356 344 330 327 322 318 321 327 324 311 301 288 276 265 254 246 241 239 246 220 236 251
101 97 85 75 81 69 71 53 68 45 23 358 292 249 26 54 62 67 62 52 49 41 44 38 40 35 26 28 24 26 19 9 17 28 27 23 17 20 12 6 1 346 340 340 338 337 330 338 317 302 288 294 281 272 263 247 236 231 216 249 266 257
104 89 80 100 104 73 106 79 66 67 52 293 279 327 40 48 57 51 50 48 40 44 44 34 39 40 30 23 28 27 26 29 21 19 24 30 24 28 17 10 4 358 358 351 346 342 6 350 328 326 331 313 303 280 270 253 228 198 187 244 260 264
90 105 107 109 90 75 67 83 66 87 61 253 250 321 63 52 56 56 50 46 42 38 34 34 38 36 34 23 21 24 27 28 24 19 21 28 28 24 15 14 14 359 5 349 342 0 6 351 358 355 332 323 313 317 305 351 69 26 343 297 262 252
112 102 88 78 81 76 73 83 113 111 116 269 304 31 45 58 60 60 49 49 43 41 37 35 34 40 33 25 24 21 30 26 26 19 20 27 22 19 12 5 21 7 352 355 348 358 355 1 348 343 312 317 339 331 326 69 12 1 326 286 271 268
93 87 78 81 98 104 101 96 78 84 94 282 38 47 59 56 60 57 53 51 49 41 44 43 36 40 39 30 27 23 24 30 26 21 21 22 20 17 11 2 18 15 8 355 350 344 337 8 5 350 350 348 312 313 322 14 342 329 304 349 346 329
91 96 103 109 112 118 115 105 101 108 154 189 224 122 81 59 63 60 55 46 41 46 40 36 36 32 31 29 26 26 21 31 20 22 12 27 28 9 3 3 20 10 9 355 347 338 346 6 1 347 13 349 343 343 356 328 331 300 1 344 335 345
109 100 101 99 98 93 68 69 78 73 13 234 91 32 42 56 51 48 52 56 43 40 42 33 31 29 20 19 26 25 23 23 14 8 358 31 30 13 9 17 15 10 5 8 348 333 356 0 356 10 22 6 350 324 327 324 328 316 325 311 333 339
92 79 89 108 122 113 93 80 82 103 226 202 119 66 59 58 61 62 60 60 54 39 37 39 29 23 23 21 27 26 23 18 14 1 38 34 32 23 11 25 14 17 18 360 6 5 1 4 354 18 8 355 348 331 329 334 335 324 322 332 352 340
95 105 108 102 87 90 93 96 88 117 120 72 78 100 82 68 61 55 61 69 67 49 37 40 37 31 28 29 33 29 27 21 19 13 39 33 26 25 21 31 11 37 15 20 19 16 7 15 360 356 2 353 342 353 349 342 349 348 332 327 326 337
102 101 95 90 96 102 107 133 156 124 109 101 94 96 91 85 75 71 69 69 78 82 70 45 36 27 38 31 28 34 31 31 23 21 32 29 21 26 27 32 21 40 18 26 7 30 28 12 1 7 351 353 344 2 357 352 1 4 352 334 322 335
107 106 119 108 100 96 84 70 78 98 105 100 89 76 92 113 117 106 88 68 58 63 65 61 42 26 29 40 29 26 37 36 27 27 30 30 22 19 31 36 24 39 33 30 1 31 33 17 10 4 359 348 354 351 3 1 6 358 347 345 330 328
92 97 84 79 73 70 65 82 99 99 101 113 121 136 140 140 142 137 103 91 83 72 58 57 54 33 26 38 33 30 31 39 32 28 27 34 24 9 33 46 26 39 33 32 10 35 28 25 14 357 5 1 354 349 8 358 355 351 345 339 335 325
66 71 78 73 83 81 76 79 80 95 113 126 138 147 153 148 140 108 117 107 88 77 66 67 65 53 34 33 35 31 28 33 34 28 25 32 26 5 34 49 29 41 32 31 16 37 31 28 12 6 2 347 333 322 8 6 351 340 338 336 328 325
89 78 87 90 81 89 100 96 88 77 78 105 119 120 89 71 61 75 71 81 76 72 65 57 46 47 46 39 34 30 33 27 33 27 28 30 30 17 21 56 32 35 28 30 21 22 32 32 12 12 0 337 334 354 21 11 345 341 340 332 340 329
102 101 98 91 83 84 83 86 87 94 79 69 71 71 66 74 55 60 69 72 81 84 82 71 59 49 33 43 40 39 32 38 34 34 31 28 40 28 24 48 37 32 26 24 31 22 25 30 11 16 10 353 344 28 24 5 346 359 355 352 346 340
115 112 104 108 114 100 100 96 102 119 97 82 81 74 67 62 74 88 77 84 71 73 72 68 58 44 39 34 47 44 42 32 36 30 30 27 31 36 26 50 39 20 25 17 40 29 21 28 15 22 7 7 350 37 19 351 0 6 350 354 338 343
110 102 94 89 92 105 92 96 87 63 84 85 81 76 75 78 76 75 84 82 81 78 79 71 65 61 45 40 36 45 43 43 35 31 30 33 33 34 30 42 45 24 22 22 33 30 28 25 20 20 0 20 11 25 13 345 358 351 346 354 348 345
113 112 108 104 96 79 87 99 105 105 84 90 104 107 100 105 97 79 82 87 81 78 73 74 77 66 67 51 45 45 46 46 40 34 30 31 34 35 37 27 39 30 20 17 27 36 24 31 21 14 3 36 15 21 3 341 1 352 357 3 4 349